Location: Cerezo de Arriba
(41.2389°N, 3.5585°W)
Time: 04:52:50
(UTC+00:00)

MetOp-B - Pass Details

Date: 19 May 2025
Orbit: 820 x 821 km, 98.6° (Epoch: 23 June)

Event Time Altitude Azimuth Distance (km) Brightness Sun altitude
Exits shadow 20:20:56 - 148° (SSE) 2,502 6.1 -8.9°
Reaches altitude 10° 20:21:10 10° 147° (SSE) 2,410 6.0 -9.0°
Maximum altitude 20:26:22 54° 71° (ENE) 992 4.4 -9.7°
Drops below altitude 10° 20:31:34 10° 356° (N) 2,425 7.2 -10.5°
Sets 20:33:58 0° 352° (N) 3,362 8.1 -10.9°
